Overview Statistics Trail Chart Weather Telemetry Raw packets
 

This is the latest recevied weather packets stored in our database for station/object W6JCZ-13. If no packets are shown the sender has not sent any weather packets the latest 10 day(s).

<< 44 45 46 47 48 49 50 >>
Time Temp. Humidity Pressure Rain* Wind** Luminosity Snow
1787950817 25.56° C 48% 1012.6 hPa 0 mm - - -
1787950217 25.56° C 48% 1012.7 hPa 0 mm - - -
1787949617 25° C 48% 1012.8 hPa 0 mm - - -
1787949017 25° C 49% 1012.9 hPa 0 mm - - -
1787948417 25° C 50% 1012.9 hPa 0 mm - - -
1787947817 25° C 49% 1013 hPa 0 mm - - -
1787947217 25° C 48% 1013 hPa 0 mm - - -
1787946617 25° C 47% 1012.9 hPa 0 mm - - -
1787946017 25° C 45% 1012.9 hPa 0 mm - - -
1787945417 25.56° C 48% 1012.9 hPa 0 mm - - -
1787944817 25.56° C 45% 1012.9 hPa 0 mm - - -
1787944217 25.56° C 44% 1013 hPa 0 mm - - -
1787943617 25.56° C 42% 1013 hPa 0 mm - - -
1787943017 25.56° C 45% 1013.1 hPa 0 mm - - -
1787942417 25° C 48% 1013.2 hPa 0 mm - - -
1787941817 24.44° C 50% 1013.2 hPa 0 mm - - -
1787941217 24.44° C 56% 1013.1 hPa 0 mm - - -
1787940617 24.44° C 58% 1012.8 hPa 0 mm - - -
1787940016 24.44° C 58% 1012.6 hPa 0 mm - - -
1787939417 23.89° C 57% 1012.6 hPa 0 mm - - -
1787938817 23.33° C 59% 1012.6 hPa 0 mm - - -
1787938216 22.78° C 60% 1012.4 hPa 0 mm - - -
1787937617 21.67° C 63% 1012.3 hPa 0 mm - - -
1787937017 21.67° C 64% 1012.3 hPa 0 mm - - -
1787936416 21.11° C 65% 1012.5 hPa 0 mm - - -

* Rain latest hour (hover to see other rain measurements)
** Current wind speed in m/s (hover to see current wind gust speed)